RYR67WB LOWW-LIPE

Flight info

Callsign RYR67WB
Flight time 0h 59m
Altitude 34000
Route RUPET DCT GRZ DCT RADLY DCT ROSKA DCT TULIK DCT ARVOD P125 BAMEK
Aircraft A320/M-SDE3FGHIRWY/LB1

Departure

Time 2026-05-06 09:19
Airport Vienna International Airport (LOWW)

Arrival

Time 2026-05-06 10:18
Airport Bologna Guglielmo Marconi Airport (LIPE)
Time Latitude Longitude Altitude Speed Heading
2026-05-06 08:56 48.11608 16.57103 605 ft 0 kts 26°
2026-05-06 09:10 48.11601 16.57097 605 ft 2 kts 26°
2026-05-06 09:10 48.11587 16.57087 605 ft 2 kts 27°
2026-05-06 09:10 48.11574 16.57077 605 ft 2 kts 26°
2026-05-06 09:11 48.11562 16.57063 605 ft 2 kts 51°
2026-05-06 09:11 48.11554 16.57045 605 ft 2 kts 70°
2026-05-06 09:11 48.11551 16.57024 605 ft 2 kts 88°
2026-05-06 09:11 48.11552 16.57002 605 ft 2 kts 108°
2026-05-06 09:12 48.11555 16.56991 605 ft 1 kts 119°
2026-05-06 09:12 48.11557 16.56985 605 ft 0 kts 117°
2026-05-06 09:14 48.11556 16.56991 605 ft 3 kts 117°
2026-05-06 09:14 48.11536 16.57050 605 ft 2 kts 116°
2026-05-06 09:14 48.11534 16.57055 605 ft 0 kts 116°
2026-05-06 09:15 48.11530 16.57069 605 ft 2 kts 116°
2026-05-06 09:15 48.11520 16.57097 605 ft 4 kts 117°
2026-05-06 09:15 48.11497 16.57167 605 ft 11 kts 117°
2026-05-06 09:15 48.11452 16.57301 602 ft 13 kts 117°
2026-05-06 09:16 48.11462 16.57439 600 ft 16 kts 32°
2026-05-06 09:16 48.11581 16.57441 599 ft 18 kts 346°
2026-05-06 09:16 48.11709 16.57390 598 ft 20 kts 341°
2026-05-06 09:16 48.11850 16.57326 595 ft 22 kts 345°
2026-05-06 09:17 48.11965 16.57292 591 ft 14 kts 12°
2026-05-06 09:17 48.12004 16.57433 589 ft 15 kts 82°
2026-05-06 09:17 48.11999 16.57564 589 ft 9 kts 102°
2026-05-06 09:17 48.11985 16.57655 589 ft 9 kts 106°
2026-05-06 09:18 48.11959 16.57775 590 ft 15 kts 109°
2026-05-06 09:18 48.11905 16.57852 590 ft 11 kts 165°
2026-05-06 09:18 48.11697 16.57939 592 ft 62 kts 165°
2026-05-06 09:18 48.11073 16.58205 594 ft 122 kts 163°
2026-05-06 09:19 48.10086 16.58619 678 ft 163 kts 163°
2026-05-06 09:19 48.09008 16.59076 1209 ft 164 kts 162°
2026-05-06 09:19 48.07906 16.59552 1824 ft 167 kts 164°
2026-05-06 09:19 48.06792 16.59999 2441 ft 170 kts 168°
2026-05-06 09:20 48.05601 16.59773 2875 ft 188 kts 209°
2026-05-06 09:20 48.04671 16.58291 3333 ft 207 kts 231°
2026-05-06 09:20 48.03780 16.56510 3774 ft 224 kts 225°
2026-05-06 09:20 48.02660 16.54790 4271 ft 241 kts 221°
2026-05-06 09:21 48.01420 16.52983 4780 ft 259 kts 222°
2026-05-06 09:21 48.00119 16.51043 5433 ft 271 kts 223°
2026-05-06 09:21 47.98820 16.49058 6295 ft 273 kts 224°
2026-05-06 09:21 47.97504 16.47026 7184 ft 275 kts 224°
2026-05-06 09:22 47.96315 16.44802 8091 ft 277 kts 237°
2026-05-06 09:22 47.95545 16.42202 8953 ft 279 kts 251°
2026-05-06 09:22 47.95030 16.39448 9815 ft 278 kts 253°
2026-05-06 09:22 47.94543 16.36668 10548 ft 281 kts 253°
2026-05-06 09:23 47.94039 16.33800 10909 ft 297 kts 253°
2026-05-06 09:23 47.93495 16.30739 11210 ft 314 kts 253°
2026-05-06 09:23 47.92921 16.27536 11615 ft 327 kts 253°
2026-05-06 09:23 47.92335 16.24270 12270 ft 330 kts 253°
2026-05-06 09:24 47.91742 16.20988 12963 ft 331 kts 253°
2026-05-06 09:24 47.91139 16.17667 13612 ft 334 kts 253°
2026-05-06 09:24 47.90537 16.14347 14247 ft 336 kts 253°
2026-05-06 09:24 47.89926 16.11004 14840 ft 339 kts 253°
2026-05-06 09:25 47.89302 16.07587 15438 ft 342 kts 253°
2026-05-06 09:25 47.88679 16.04181 16021 ft 345 kts 253°
2026-05-06 09:25 47.88032 16.00754 16575 ft 348 kts 250°
2026-05-06 09:25 47.86871 15.97563 17062 ft 351 kts 230°
2026-05-06 09:26 47.85044 15.95192 17609 ft 354 kts 212°
2026-05-06 09:26 47.82806 15.93711 18172 ft 356 kts 202°
2026-05-06 09:26 47.80487 15.92403 18710 ft 359 kts 202°
2026-05-06 09:26 47.78160 15.91090 19239 ft 361 kts 202°
2026-05-06 09:27 47.75819 15.89769 19788 ft 362 kts 202°
2026-05-06 09:27 47.73461 15.88435 20337 ft 364 kts 203°
2026-05-06 09:27 47.71099 15.87100 20846 ft 365 kts 203°
2026-05-06 09:27 47.68734 15.85762 21328 ft 368 kts 203°
2026-05-06 09:28 47.66354 15.84416 21826 ft 369 kts 203°
2026-05-06 09:28 47.63952 15.83061 22309 ft 371 kts 203°
2026-05-06 09:28 47.61525 15.81692 22792 ft 372 kts 203°
2026-05-06 09:28 47.59128 15.80343 23272 ft 373 kts 203°
2026-05-06 09:29 47.56688 15.78967 23711 ft 375 kts 203°
2026-05-06 09:29 47.54270 15.77607 24107 ft 377 kts 203°
2026-05-06 09:29 47.51805 15.76223 24459 ft 381 kts 203°
2026-05-06 09:29 47.49339 15.74837 24851 ft 383 kts 203°
2026-05-06 09:30 47.46823 15.73428 25218 ft 386 kts 203°
2026-05-06 09:30 47.44306 15.72015 25597 ft 388 kts 203°
2026-05-06 09:30 47.41805 15.70612 25939 ft 391 kts 203°
2026-05-06 09:30 47.39236 15.69173 26265 ft 394 kts 203°
2026-05-06 09:31 47.36692 15.67753 26616 ft 396 kts 203°
2026-05-06 09:31 47.34129 15.66321 26969 ft 398 kts 203°
2026-05-06 09:31 47.31508 15.64859 27280 ft 401 kts 203°
2026-05-06 09:31 47.28901 15.63406 27603 ft 403 kts 203°
2026-05-06 09:32 47.26287 15.61951 27907 ft 405 kts 204°
2026-05-06 09:32 47.23652 15.60488 28201 ft 408 kts 204°
2026-05-06 09:32 47.20982 15.59005 28476 ft 411 kts 204°
2026-05-06 09:32 47.18321 15.57528 28762 ft 413 kts 203°
2026-05-06 09:33 47.15638 15.56042 29056 ft 415 kts 204°
2026-05-06 09:33 47.12946 15.54554 29332 ft 417 kts 204°
2026-05-06 09:33 47.10236 15.53056 29597 ft 419 kts 204°
2026-05-06 09:33 47.07507 15.51550 29872 ft 420 kts 204°
2026-05-06 09:34 47.04762 15.50038 30172 ft 421 kts 204°
2026-05-06 09:34 47.02045 15.48541 30536 ft 420 kts 204°
2026-05-06 09:34 46.99307 15.47036 30900 ft 419 kts 204°
2026-05-06 09:34 46.96637 15.45475 31245 ft 416 kts 207°
2026-05-06 09:35 46.94018 15.43710 31558 ft 414 kts 210°
2026-05-06 09:35 46.91463 15.41758 31889 ft 412 kts 212°
2026-05-06 09:35 46.88959 15.39799 32259 ft 410 kts 212°
2026-05-06 09:35 46.86461 15.37857 32532 ft 410 kts 212°
2026-05-06 09:36 46.83926 15.35882 32786 ft 410 kts 212°
2026-05-06 09:36 46.81441 15.33945 33022 ft 411 kts 211°
2026-05-06 09:36 46.78927 15.31991 33265 ft 411 kts 212°
2026-05-06 09:36 46.76402 15.30027 33508 ft 411 kts 212°
2026-05-06 09:37 46.73900 15.28083 33751 ft 411 kts 212°
2026-05-06 09:37 46.71412 15.26055 33901 ft 409 kts 215°
2026-05-06 09:37 46.69025 15.23830 33908 ft 408 kts 218°
2026-05-06 09:38 46.64571 15.18813 33916 ft 403 kts 224°
2026-05-06 09:38 46.60600 15.13150 33933 ft 401 kts 230°
2026-05-06 09:39 46.57079 15.06954 33928 ft 400 kts 233°
2026-05-06 09:39 46.53622 15.00670 33938 ft 399 kts 233°
2026-05-06 09:40 46.50178 14.94405 33930 ft 398 kts 233°
2026-05-06 09:40 46.45004 14.85021 33936 ft 397 kts 233°
2026-05-06 09:41 46.41560 14.78781 33941 ft 398 kts 233°
2026-05-06 09:41 46.38113 14.72549 33947 ft 396 kts 233°
2026-05-06 09:42 46.34670 14.66337 33947 ft 397 kts 233°
2026-05-06 09:42 46.31232 14.60147 33940 ft 396 kts 233°
2026-05-06 09:43 46.27819 14.54017 33946 ft 395 kts 233°
2026-05-06 09:43 46.24372 14.47836 33933 ft 395 kts 233°
2026-05-06 09:44 46.20951 14.41718 33934 ft 394 kts 233°
2026-05-06 09:44 46.17499 14.35562 33943 ft 394 kts 233°
2026-05-06 09:45 46.14067 14.29453 33945 ft 393 kts 232°
2026-05-06 09:45 46.10650 14.23377 33938 ft 393 kts 232°
2026-05-06 09:46 46.07209 14.17276 33941 ft 393 kts 232°
2026-05-06 09:46 46.03769 14.11190 33936 ft 392 kts 232°
2026-05-06 09:47 46.00348 14.05150 33925 ft 391 kts 232°
2026-05-06 09:47 45.96919 13.99116 33927 ft 390 kts 232°
2026-05-06 09:48 45.93510 13.93125 33924 ft 390 kts 232°
2026-05-06 09:48 45.90088 13.87120 33926 ft 390 kts 232°
2026-05-06 09:49 45.86645 13.81096 33933 ft 391 kts 232°
2026-05-06 09:49 45.83232 13.75132 33941 ft 390 kts 232°
2026-05-06 09:50 45.79782 13.69124 33948 ft 391 kts 232°
2026-05-06 09:50 45.76340 13.63141 33950 ft 391 kts 231°
2026-05-06 09:51 45.72883 13.57141 33948 ft 391 kts 231°
2026-05-06 09:51 45.69436 13.51177 33946 ft 391 kts 232°
2026-05-06 09:52 45.65987 13.45220 33948 ft 391 kts 231°
2026-05-06 09:52 45.62521 13.39242 33944 ft 391 kts 231°
2026-05-06 09:53 45.59185 13.33504 33944 ft 391 kts 231°
2026-05-06 09:53 45.55738 13.27588 33941 ft 390 kts 231°
2026-05-06 09:54 45.52249 13.21613 33937 ft 391 kts 231°
2026-05-06 09:54 45.48675 13.15503 33933 ft 390 kts 231°
2026-05-06 09:55 45.45221 13.09610 33930 ft 390 kts 231°
2026-05-06 09:55 45.41737 13.03672 33929 ft 391 kts 231°
2026-05-06 09:56 45.38267 12.97782 33777 ft 392 kts 231°
2026-05-06 09:56 45.36515 12.94809 33505 ft 390 kts 230°
2026-05-06 09:56 45.34785 12.91883 33232 ft 388 kts 231°
2026-05-06 09:57 45.33094 12.88927 32966 ft 387 kts 232°
2026-05-06 09:57 45.31517 12.85830 32690 ft 385 kts 237°
2026-05-06 09:57 45.30250 12.82539 32422 ft 387 kts 244°
2026-05-06 09:57 45.29179 12.79039 32155 ft 388 kts 245°
2026-05-06 09:58 45.28126 12.75521 31891 ft 389 kts 245°
2026-05-06 09:58 45.27027 12.71838 31611 ft 389 kts 245°
2026-05-06 09:58 45.25967 12.68292 31341 ft 390 kts 245°
2026-05-06 09:58 45.24910 12.64759 31044 ft 391 kts 245°
2026-05-06 09:59 45.23852 12.61237 30543 ft 392 kts 245°
2026-05-06 09:59 45.22781 12.57672 29837 ft 393 kts 245°
2026-05-06 09:59 45.21717 12.54133 29253 ft 389 kts 245°
2026-05-06 09:59 45.20670 12.50662 28688 ft 385 kts 245°
2026-05-06 10:00 45.19631 12.47216 28084 ft 383 kts 245°
2026-05-06 10:00 45.18590 12.43761 27495 ft 380 kts 245°
2026-05-06 10:00 45.17554 12.40340 26854 ft 378 kts 245°
2026-05-06 10:00 45.16528 12.36958 26243 ft 376 kts 245°
2026-05-06 10:01 45.15486 12.33527 25581 ft 375 kts 245°
2026-05-06 10:01 45.14468 12.30176 24990 ft 373 kts 245°
2026-05-06 10:01 45.13448 12.26820 24373 ft 371 kts 245°
2026-05-06 10:01 45.12432 12.23486 23750 ft 370 kts 244°
2026-05-06 10:02 45.11408 12.20124 23151 ft 368 kts 244°
2026-05-06 10:02 45.10389 12.16790 22531 ft 367 kts 244°
2026-05-06 10:02 45.09380 12.13490 21969 ft 365 kts 244°
2026-05-06 10:02 45.08377 12.10215 21412 ft 362 kts 244°
2026-05-06 10:03 45.07381 12.06966 20869 ft 360 kts 244°
2026-05-06 10:03 45.06372 12.03682 20305 ft 359 kts 244°
2026-05-06 10:03 45.05382 12.00461 19741 ft 358 kts 244°
2026-05-06 10:03 45.04363 11.97148 19162 ft 357 kts 244°
2026-05-06 10:04 45.03351 11.93862 18562 ft 356 kts 244°
2026-05-06 10:04 45.02370 11.90683 18005 ft 356 kts 244°
2026-05-06 10:04 45.01388 11.87505 17449 ft 355 kts 244°
2026-05-06 10:04 45.00397 11.84303 16885 ft 355 kts 244°
2026-05-06 10:05 44.99420 11.81154 16355 ft 353 kts 244°
2026-05-06 10:05 44.98442 11.77998 15814 ft 352 kts 244°
2026-05-06 10:05 44.97466 11.74857 15265 ft 351 kts 244°
2026-05-06 10:05 44.96475 11.71674 14723 ft 349 kts 244°
2026-05-06 10:06 44.95476 11.68464 14175 ft 347 kts 244°
2026-05-06 10:06 44.94484 11.65278 13637 ft 345 kts 244°
2026-05-06 10:06 44.93519 11.62186 13122 ft 344 kts 244°
2026-05-06 10:06 44.92553 11.59094 12599 ft 342 kts 244°
2026-05-06 10:07 44.91589 11.56015 12075 ft 340 kts 244°
2026-05-06 10:07 44.90634 11.52965 11561 ft 339 kts 244°
2026-05-06 10:07 44.89691 11.49957 11044 ft 337 kts 244°
2026-05-06 10:07 44.88743 11.46937 10557 ft 335 kts 244°
2026-05-06 10:08 44.87809 11.43959 10300 ft 325 kts 244°
2026-05-06 10:08 44.86920 11.41133 10148 ft 313 kts 244°
2026-05-06 10:08 44.86048 11.38362 10017 ft 301 kts 244°
2026-05-06 10:08 44.85215 11.35714 9870 ft 291 kts 244°
2026-05-06 10:09 44.84408 11.33159 9573 ft 287 kts 243°
2026-05-06 10:09 44.83595 11.30587 9287 ft 283 kts 243°
2026-05-06 10:09 44.82800 11.28078 9000 ft 279 kts 243°
2026-05-06 10:09 44.82018 11.25613 8737 ft 275 kts 243°
2026-05-06 10:10 44.81256 11.23204 8470 ft 271 kts 243°
2026-05-06 10:10 44.80495 11.20807 8206 ft 267 kts 243°
2026-05-06 10:10 44.79742 11.18437 7903 ft 265 kts 243°
2026-05-06 10:10 44.78981 11.16041 7563 ft 264 kts 243°
2026-05-06 10:11 44.78206 11.13608 7209 ft 263 kts 243°
2026-05-06 10:11 44.77435 11.11192 6857 ft 263 kts 243°
2026-05-06 10:11 44.77197 11.10447 6746 ft 263 kts 243°
2026-05-06 10:11 44.76524 11.08334 6441 ft 263 kts 243°
2026-05-06 10:12 44.75779 11.05999 6117 ft 262 kts 243°
2026-05-06 10:12 44.75030 11.03665 5757 ft 262 kts 242°
2026-05-06 10:12 44.73959 11.01646 5481 ft 255 kts 216°
2026-05-06 10:12 44.72440 11.00437 5239 ft 249 kts 205°
2026-05-06 10:13 44.70898 10.99385 5006 ft 245 kts 205°
2026-05-06 10:13 44.69376 10.98335 4753 ft 242 kts 205°
2026-05-06 10:13 44.67858 10.97364 4495 ft 238 kts 193°
2026-05-06 10:13 44.66243 10.97354 4238 ft 235 kts 163°
2026-05-06 10:14 44.64849 10.98484 3991 ft 234 kts 139°
2026-05-06 10:14 44.63821 11.00230 3822 ft 230 kts 124°
2026-05-06 10:14 44.63074 11.02190 3696 ft 225 kts 117°
2026-05-06 10:14 44.62438 11.04130 3569 ft 219 kts 117°
2026-05-06 10:15 44.61796 11.06037 3418 ft 214 kts 118°
2026-05-06 10:15 44.61131 11.07921 3145 ft 216 kts 119°
2026-05-06 10:15 44.60451 11.09798 2862 ft 218 kts 119°
2026-05-06 10:15 44.59755 11.11705 2572 ft 220 kts 119°
2026-05-06 10:16 44.59056 11.13623 2279 ft 222 kts 118°
2026-05-06 10:16 44.58359 11.15544 1983 ft 219 kts 118°
2026-05-06 10:16 44.57684 11.17406 1690 ft 208 kts 118°
2026-05-06 10:16 44.57046 11.19170 1422 ft 202 kts 117°
2026-05-06 10:17 44.56417 11.20907 1163 ft 196 kts 117°
2026-05-06 10:17 44.55811 11.22583 935 ft 189 kts 117°
2026-05-06 10:17 44.55246 11.24148 727 ft 179 kts 117°
2026-05-06 10:17 44.54694 11.25677 479 ft 171 kts 116°
2026-05-06 10:18 44.54173 11.27119 252 ft 160 kts 116°
2026-05-06 10:18 44.53694 11.28453 143 ft 141 kts 116°
2026-05-06 10:18 44.53353 11.29395 123 ft 42 kts 117°
2026-05-06 10:18 44.53248 11.29695 122 ft 31 kts 117°
2026-05-06 10:19 44.53155 11.29927 122 ft 22 kts 141°
2026-05-06 10:19 44.53061 11.29854 123 ft 12 kts 237°
2026-05-06 10:19 44.53033 11.29747 125 ft 11 kts 288°
2026-05-06 10:19 44.53068 11.29642 126 ft 12 kts 296°
2026-05-06 10:20 44.53106 11.29534 127 ft 12 kts 296°
2026-05-06 10:20 44.53146 11.29423 127 ft 13 kts 295°
2026-05-06 10:20 44.53108 11.29342 128 ft 8 kts 212°
2026-05-06 10:20 44.53074 11.29319 129 ft 0 kts 205°